Bridgeport, West Virginia, United States (26330)
Lat: 39.29N, Lon: 80.26W
Wx Zone: WVZ031
Local Info
Past Weather Observations for Today

NOTE: This archive is for the closest National Weather Service station to Bridgeport. Information may differ from the station used for current weather conditions.

Click here for Long-term Archive

Time Weather Temperature Dewpoint Humidity Pressure Winds Precip Visibility
18:53
Clear
75°F / 24°C 52°F / 11°C 44% 30.06 in
(1018 mb)
E 3.5 mph
(E 6 kph)
- 10SM
17:53
Clear
79°F / 26°C 55°F / 13°C 45% 30.06 in
(1018 mb)
Variable 5.8 mph
(Variable 9 kph)
- 10SM
16:53
Clear
84°F / 29°C 54°F / 12°C 35% 30.09 in
(1019 mb)
NE 5.8 mph
(NE 9 kph)
- 10SM
15:53
Clear
86°F / 30°C 54°F / 12°C 33% 30.09 in
(1019 mb)
NE 5.8 mph
(NE 9 kph)
- 10SM
14:53
Clear
86°F / 30°C 55°F / 13°C 35% 30.09 in
(1019 mb)
NE 6.9 mph
(NE 11 kph)
- 10SM
13:53
Clear
86°F / 30°C 50°F / 10°C 29% 30.12 in
(1020 mb)
Calm - 10SM
12:53
Clear
84°F / 29°C 52°F / 11°C 33% 30.15 in
(1021 mb)
NE 3.5 mph
(NE 6 kph)
- 10SM
11:53
Clear
84°F / 29°C 54°F / 12°C 35% 30.15 in
(1021 mb)
Variable 4.6 mph
(Variable 7 kph)
- 10SM
09:53
Clear
79°F / 26°C 66°F / 19°C 65% 30.18 in
(1022 mb)
Calm - 10SM
08:53
Clear
73°F / 23°C 64°F / 18°C 74% 30.18 in
(1022 mb)
Calm - 10SM
07:15
Partly Cloudy
Fog And Mist
64°F / 18°C 63°F / 17°C 94% 30.18 in
(1022 mb)
Calm - 4SM
07:10
Mostly Cloudy
Fog And Mist
64°F / 18°C 63°F / 17°C 94% 30.18 in
(1022 mb)
Calm - 2SM
06:53
Obscured
Fog
63°F / 17°C 63°F / 17°C 100% 30.18 in
(1022 mb)
NE 4.6 mph
(NE 7 kph)
- 1/4SM
06:48
Obscured
Fog
63°F / 17°C 63°F / 17°C 100% 30.18 in
(1022 mb)
NNE 4.6 mph
(NNE 7 kph)
- 1/4SM
06:21
Obscured
Fog
61°F / 16°C 61°F / 16°C 100% 30.18 in
(1022 mb)
Calm - M1/4SM
05:53
Obscured
Fog
61°F / 16°C 61°F / 16°C 100% 30.18 in
(1022 mb)
NE 3.5 mph
(NE 6 kph)
- 1/4SM
04:33
Obscured
Fog
61°F / 16°C 61°F / 16°C 100% 30.18 in
(1022 mb)
NE 3.5 mph
(NE 6 kph)
- 1/4SM
04:01
Obscured
Fog And Mist
63°F / 17°C 61°F / 16°C 94% 30.18 in
(1022 mb)
NE 3.5 mph
(NE 6 kph)
- 3/4SM
03:53
Clear
Fog And Mist
63°F / 17°C 61°F / 16°C 94% 30.18 in
(1022 mb)
NE 3.5 mph
(NE 6 kph)
- 1 1/2SM
03:40
Clear
Fog And Mist
63°F / 17°C 61°F / 16°C 94% 30.18 in
(1022 mb)
NNE 3.5 mph
(NNE 6 kph)
- 1 3/4SM
03:24
Clear
Fog And Mist
63°F / 17°C 63°F / 17°C 100% 30.18 in
(1022 mb)
NNE 3.5 mph
(NNE 6 kph)
- 3SM
03:15
Clear
Fog And Mist
63°F / 17°C 63°F / 17°C 100% 30.18 in
(1022 mb)
NNE 4.6 mph
(NNE 7 kph)
- 1 3/4SM
02:53
Clear
Fog And Mist
63°F / 17°C 63°F / 17°C 100% 30.18 in
(1022 mb)
NE 5.8 mph
(NE 9 kph)
- 4SM
01:53
Clear
Fog And Mist
63°F / 17°C 63°F / 17°C 100% 30.18 in
(1022 mb)
NNE 3.5 mph
(NNE 6 kph)
- 5SM
00:53
Clear
64°F / 18°C 63°F / 17°C 94% 30.18 in
(1022 mb)
Calm - 8SM
Time Weather Temperature Dewpoint Humidity Pressure Winds Precip Visibility


Weather for websites

WeatherForYou.com, LLC is not responsible for any damages or problems caused by this service. Current weather conditions are obtained from the closest station including government and personal stations which may have varying degrees of accuracy. Weather forecasts are derived from the NOAA NDFD. Like all things, this site belongs to Jesus Christ... He just trusts us to maintain it. If you have any questions or comments email webmaster@weatherforyou.com

Copyright © 2016, WeatherForYou.com LLC. All rights reserved.